Regional Weather Roundup
Issued by NWS Newport/Morehead, NC

Current Version | Previous Version | Graphics & Text | Print | Product List | Glossary On
Versions: 1 2 3 4 5 6 7 8 9 10 11 12 13 14 15 16 17 18 19 20 21 22 23 24 25 26 27 28 29 30 31 32 33 34 35 36 37 38 39 40 41 42 43 44 45 46 47 48 49 50
000 ASUS42 KMHX 031513 RWRMHX WEATHER ROUNDUP FOR EASTERN NORTH CAROLINA NATIONAL WEATHER SERVICE NEWPORT/MOREHEAD CITY NC 1100 AM EDT TUE MAY 03 2016 NOTE: "FAIR" INDICATES FEW OR NO CLOUDS BELOW 12,000 FEET WITH NO SIGNIFICANT WEATHER AND/OR OBSTRUCTIONS TO VISIBILITY NCZ015>017-031-032-045>047-102-103-031600- NORTH COAST CITY SKY/WX TMP DP RH WIND PRES REMARKS EDENTON DRIZZLE 68 68 100 S6 29.86S ELIZABETH CITY LGT RAIN 67 65 93 SW8 29.84F KITTY HAWK LGT RAIN 66 66 100 CALM 29.84R MANTEO NOT AVBL $$ NCZ045>047-081-094-103-104-031600- CENTRAL COAST CITY SKY/WX TMP DP RH WIND PRES REMARKS FRISCO LGT RAIN 67 66 97 W12 29.90R SWANQUARTER NOT AVBL $$ NCZ095-097-098-100-101-031600- SOUTHERN COAST CITY SKY/WX TMP DP RH WIND PRES REMARKS BEAUFORT LGT RAIN 66 64 93 W10 29.92R CEDAR ISLAND NOT AVBL JACKSONVILLE LGT RAIN 66 63 90 S8 29.88F PINEY ISLAND NOT AVBL WILMINGTON HVY RAIN 66 64 93 CALM 29.90S FOG $$ NCZ011>013-027>030-043-044-078>080-089-090>093-098-031600- COASTAL PLAIN CITY SKY/WX TMP DP RH WIND PRES REMARKS AHOSKIE DRIZZLE 65 64 95 S5 29.84F CLINTON LGT RAIN 67 67 99 CALM 29.88R ELIZABETHTOWN CLOUDY 67 66 96 S3 29.88S GOLDSBORO CLOUDY 68 68 100 S8 29.85R GREENVILLE CLOUDY 68 68 100 S9 29.88S HAVELOCK HVY RAIN 66 63 90 SW9 29.92S KENANSVILLE CLOUDY 65 64 97 CALM 29.89R KINSTON CLOUDY 66 66 100 S9 29.88S NEW BERN LGT RAIN 66 63 90 S10 29.90S RICHLANDS RAIN 65 64 97 S6 29.89F ROCKY MOUNT CLOUDY 70 67 90 S9 29.84F WASHINGTON RAIN 66 64 95 S7 29.87S WHITEVILLE CLOUDY 67 65 95 CALM 29.88S $$ AMZ130-135-150-152-154-156-158-170-250-252-270-ANZ085-086-088-633-658-670-031600- MARINE OBSERVATIONS STATION/POSITION TIME TEMP WIND PRES WAVE SWELL AIR SEA DIR/SP/G HT/PER HT/PER (UTC) (F) (DEG/KT/KT) (MB) (FT/S) (FT/S) CHESAPEAKE LIGHT 1400 65 240/ 14/ 15 1010.4 64 E VA BEACH 1450 59 54 260/ 10/ 12 1010.1 3/ 6 3/ 6 DUCK 1400 66 65 250/ 2/ 4 1009.8 2 E DUCK 1411 58 N/A 2/10 OREGON INLET 1400 66 72 310/ 8/ 13 1010.7 13E OREGON INLT 1400 61 N/A 4/ 6 3/ 6 HATTERAS CG 1400 67 69 250/ 14/ 19 1011.7 DIAMOND BUOY 1450 68 72 270/ 17/ 19 1012.0 5/ 6 2/11 CAPE LOOKOUT 1500 66 290/ 13/ 15 1012.7 BEAUFORT LAB 1400 65 67 240/ 5/ 8 1012.3 30 SE NEW RVR IN 1425 70 N/A 6/ 7 27 SE WRIGHTSVLE 1408 72 72 270/ 10/ 16 1011.6 5 SE WRIGHTSVLE NOT AVBL 225 S CAPE HAT 1450 74 74 180/ 17/ 19 1015.6 4/ 5 2/ 9 41 SE CHARLESTON 1450 75 74 240/ 14/ 16 1011.1 4/ 6 2/ 7 $$

USA.gov is the U.S. government's official web portal to all federal, state and local government web resources and services.